Date String (YYYY-MM-DD hh:mm:ss) UTC,Instrument flags,absolute air pressure of the measurement (hPa),sample flow rate (lpm),inlet stack bypass flow (lpm),air temperature of the measurement (°C),ambient temperature measured by the external sensor (°C),aerosol sample conditioner tube jacket temperature (°C),OPC LED temperature (°C),internal box temperature (°C),relative humidity of the measurement (%),span deviation,mass concentration of particles derived from Lorenz-Mie calculation of OPC scattering (μg/m³),mass concentration of particles derived from Lorenz-Mie calculation of OPC scattering (μg/m³),mass concentration of particles derived from Lorenz-Mie calculation of OPC scattering (μg/m³)
DateTimeUTC,F1_M11,P_M11,Q1_M11,Q2_M11,T1_M11,T2_M11,T3_M11,T4_M11,T5_M11,U1_M11,ZSPAN_M11,X0_M11,X2_M11,X1_M11
2024-02-16 16:00:00,SystemResetWarning,0830.2,5.00,000.00,018.3,017.5,000.0,027.0,020.0,18.8,0001.6,0010.83,0008.08,0007.88
2024-02-16 16:01:00,SystemResetWarning,0830.3,5.01,000.00,018.4,018.1,000.0,027.1,020.4,18.7,0001.4,0010.75,0008.06,0007.85
2024-02-16 16:02:00,SystemResetWarning,0830.2,5.00,000.00,018.6,018.9,000.0,027.1,020.9,18.5,0001.3,0010.58,0007.99,0007.80
2024-02-16 16:03:00,SystemResetWarning,0830.2,4.99,000.00,018.7,019.0,000.0,027.1,020.8,18.3,0001.2,0010.54,0007.97,0007.77
2024-02-16 16:04:00,SystemResetWarning,0830.2,5.01,000.00,018.7,018.8,000.0,027.0,020.5,18.3,0001.3,0010.43,0007.91,0007.72
2024-02-16 16:05:00,SystemResetWarning,0830.1,5.01,000.00,018.6,018.6,000.0,027.0,020.4,18.4,0001.6,0010.64,0007.85,0007.66
2024-02-16 16:06:00,SystemResetWarning,0830.0,5.01,000.00,018.6,018.5,000.0,027.0,020.2,18.4,0001.8,0010.60,0007.80,0007.60
2024-02-16 16:07:00,SystemResetWarning,0830.0,5.00,000.00,018.5,018.3,000.0,026.9,020.1,18.4,0002.1,0010.47,0007.71,0007.51
2024-02-16 16:08:00,SystemResetWarning,0830.0,5.00,000.00,018.5,018.2,000.0,026.9,020.0,18.5,0002.0,0010.43,0007.66,0007.46
2024-02-16 16:09:00,SystemResetWarning,0830.1,4.99,000.00,018.4,018.0,000.0,026.9,020.0,18.5,0002.0,0010.38,0007.61,0007.40
2024-02-16 16:10:00,SystemResetWarning,0830.1,5.00,000.00,018.4,017.9,000.0,027.0,020.0,18.5,0002.1,0010.44,0007.59,0007.38
2024-02-16 16:11:00,SystemResetWarning,0830.2,4.99,000.00,018.4,017.9,000.0,027.0,020.0,18.6,0002.0,0010.47,0007.57,0007.35
2024-02-16 16:12:00,SystemResetWarning,0830.1,4.99,000.00,018.4,017.8,000.0,027.0,020.0,18.7,0002.2,0010.33,0007.47,0007.26
2024-02-16 16:13:00,SystemResetWarning,0830.1,5.00,000.00,018.4,017.8,000.0,026.9,020.0,18.7,0002.3,0010.21,0007.39,0007.18
2024-02-16 16:14:00,SystemResetWarning,0830.2,5.01,000.00,018.3,017.7,000.0,027.0,020.0,18.7,0002.4,0010.10,0007.30,0007.11
2024-02-16 16:15:00,SystemResetWarning,0830.2,4.99,000.00,018.3,017.7,000.0,027.0,020.0,18.7,0002.4,0010.05,0007.26,0007.06
2024-02-16 16:16:00,SystemResetWarning,0830.1,5.00,000.00,018.3,017.6,000.0,027.0,020.0,18.7,0002.5,0009.82,0007.22,0007.02
2024-02-16 16:17:00,SystemResetWarning,0830.1,5.00,000.00,018.3,017.5,000.0,027.0,020.0,18.7,0002.4,0009.68,0007.20,0007.00
2024-02-16 16:18:00,SystemResetWarning,0830.1,4.99,000.00,018.3,017.5,000.0,027.0,020.0,18.7,0002.1,0009.68,0007.19,0006.99
2024-02-16 16:19:00,SystemResetWarning,0830.1,4.99,000.00,018.3,017.5,000.0,027.0,020.0,18.8,0002.0,0009.63,0007.16,0006.97
2024-02-16 16:20:00,SystemResetWarning,0830.2,4.99,000.00,018.3,017.5,000.0,027.0,020.0,18.7,0002.4,0009.58,0007.13,0006.94
2024-02-16 16:21:00,SystemResetWarning,0830.2,5.01,000.00,018.3,017.4,000.0,027.0,020.0,18.7,0002.3,0009.48,0007.10,0006.91
2024-02-16 16:22:00,SystemResetWarning,0830.2,5.01,000.00,018.3,017.4,000.0,027.0,020.0,18.7,0002.3,0009.42,0007.10,0006.91
2024-02-16 16:23:00,SystemResetWarning,0830.1,4.99,000.00,018.3,017.4,000.0,027.0,020.0,18.7,0002.4,0009.46,0007.11,0006.93
2024-02-16 16:24:00,SystemResetWarning,0830.1,4.99,000.00,018.3,017.5,000.0,027.0,020.0,18.7,0002.2,0009.50,0007.13,0006.94
2024-02-16 16:25:00,SystemResetWarning,0830.1,5.01,000.00,018.4,018.1,000.0,027.1,020.4,18.6,0002.3,0009.54,0007.15,0006.94
2024-02-16 16:26:00,SystemResetWarning,0830.1,5.01,000.00,018.6,018.9,000.0,027.1,020.8,18.3,0002.3,0009.54,0007.13,0006.92
2024-02-16 16:27:00,SystemResetWarning,0830.0,4.98,000.00,018.7,018.9,000.0,027.1,020.7,18.1,0002.2,0009.46,0007.08,0006.88
2024-02-16 16:28:00,SystemResetWarning,0830.1,5.00,000.00,018.7,018.8,000.0,027.0,020.5,18.2,0001.8,0009.45,0007.06,0006.88
2024-02-16 16:29:00,SystemResetWarning,0830.0,5.00,000.00,018.6,018.6,000.0,027.0,020.3,18.2,0001.9,0009.49,0007.07,0006.87
2024-02-16 16:30:00,SystemResetWarning,0830.0,5.00,000.00,018.6,018.4,000.0,027.0,020.2,18.3,0001.8,0009.58,0007.10,0006.88
2024-02-16 16:31:00,SystemResetWarning,0830.0,5.00,000.00,018.5,018.3,000.0,026.9,020.1,18.3,0001.6,0009.62,0007.11,0006.88
2024-02-16 16:32:00,SystemResetWarning,0830.0,5.00,000.00,018.5,018.1,000.0,026.9,020.0,18.3,0001.5,0009.60,0007.10,0006.88
2024-02-16 16:33:00,SystemResetWarning,0830.0,4.99,000.00,018.4,018.0,000.0,027.0,020.0,18.4,0001.3,0009.58,0007.08,0006.87
2024-02-16 16:34:00,SystemResetWarning,0830.0,5.00,000.00,018.4,017.9,000.0,027.0,020.0,18.5,0001.6,0009.55,0007.08,0006.87
2024-02-16 16:35:00,SystemResetWarning,0830.1,5.00,000.00,018.4,017.8,000.0,027.0,020.0,18.5,0001.7,0009.57,0007.08,0006.86
2024-02-16 16:36:00,SystemResetWarning,0830.0,4.99,000.00,018.4,017.8,000.0,027.0,020.0,18.5,0001.5,0009.54,0007.06,0006.86
2024-02-16 16:37:00,SystemResetWarning,0830.0,5.00,000.00,018.4,017.7,000.0,027.0,020.0,18.6,0001.3,0009.56,0007.07,0006.87
2024-02-16 16:38:00,SystemResetWarning,0830.0,5.00,000.00,018.3,017.7,000.0,027.0,020.0,18.6,0001.2,0009.58,0007.09,0006.89
2024-02-16 16:39:00,SystemResetWarning,0830.0,5.01,000.00,018.3,017.6,000.0,027.0,020.0,18.6,0001.2,0009.64,0007.11,0006.90
2024-02-16 16:40:00,SystemResetWarning,0830.1,5.01,000.00,018.3,017.6,000.0,027.0,020.0,18.6,0001.2,0009.65,0007.13,0006.94
2024-02-16 16:41:00,SystemResetWarning,0830.0,5.00,000.00,018.3,017.6,000.0,027.0,020.0,18.6,0001.5,0009.62,0007.13,0006.96
2024-02-16 16:42:00,SystemResetWarning,0830.0,5.00,000.00,018.3,017.5,000.0,027.0,020.0,18.7,0001.6,0009.65,0007.16,0006.99
2024-02-16 16:43:00,SystemResetWarning,0830.0,5.00,000.00,018.3,017.5,000.0,027.0,020.0,18.7,0001.5,0009.74,0007.21,0007.03
2024-02-16 16:44:00,SystemResetWarning,0830.0,5.00,000.00,018.3,017.5,000.0,027.0,020.0,18.7,0001.9,0009.83,0007.27,0007.07
2024-02-16 16:45:00,SystemResetWarning,0830.0,5.00,000.00,018.3,017.5,000.0,027.0,020.0,18.8,0001.8,0009.89,0007.30,0007.09
2024-02-16 16:46:00,SystemResetWarning,0830.0,4.99,000.00,018.3,017.5,000.0,027.0,020.0,18.8,0001.6,0009.91,0007.31,0007.10
2024-02-16 16:47:00,SystemResetWarning,0830.0,5.00,000.00,018.3,017.5,000.0,027.0,020.0,18.8,0001.8,0009.99,0007.35,0007.12
2024-02-16 16:48:00,SystemResetWarning,0830.0,5.00,000.00,018.3,017.5,000.0,027.0,020.0,18.8,0001.9,0010.05,0007.36,0007.13
2024-02-16 16:49:00,SystemResetWarning,0830.0,5.00,000.00,018.3,017.5,000.0,027.0,020.0,18.8,0001.9,0010.13,0007.39,0007.15
2024-02-16 16:50:00,SystemResetWarning,0829.9,5.01,000.00,018.3,017.7,000.0,027.0,020.1,18.8,0002.1,0010.21,0007.42,0007.17
2024-02-16 16:51:00,SystemResetWarning,0830.0,5.02,000.00,018.5,018.5,000.0,027.1,020.6,18.6,0002.1,0010.27,0007.45,0007.19
2024-02-16 16:52:00,SystemResetWarning,0830.1,4.99,000.00,018.7,019.1,000.0,027.1,020.9,18.3,0002.0,0010.30,0007.46,0007.19
2024-02-16 16:53:00,SystemResetWarning,0830.0,4.99,000.00,018.7,018.9,000.0,027.1,020.7,18.3,0001.9,0010.32,0007.46,0007.18
2024-02-16 16:54:00,SystemResetWarning,0830.0,5.00,000.00,018.7,018.8,000.0,027.0,020.5,18.3,0001.8,0010.26,0007.42,0007.16
2024-02-16 16:55:00,SystemResetWarning,0829.9,5.00,000.00,018.6,018.6,000.0,027.0,020.3,18.4,0001.7,0010.26,0007.41,0007.14
2024-02-16 16:56:00,SystemResetWarning,0829.9,5.00,000.00,018.6,018.4,000.0,026.9,020.2,18.5,0001.7,0010.29,0007.43,0007.15
2024-02-16 16:57:00,SystemResetWarning,0830.0,5.00,000.00,018.5,018.3,000.0,026.9,020.1,18.5,0001.7,0010.37,0007.46,0007.16
2024-02-16 16:58:00,SystemResetWarning,0829.9,5.00,000.00,018.5,018.2,000.0,026.9,020.0,18.5,0001.6,0010.35,0007.46,0007.16
2024-02-16 16:59:00,SystemResetWarning,0829.9,5.00,000.00,018.4,018.0,000.0,026.9,020.0,18.5,0001.3,0010.32,0007.46,0007.17
